TimePDT,TemperatureF,Dew PointF,Humidity,Sea Level PressureIn,VisibilityMPH,Wind Direction,Wind SpeedMPH,Gust SpeedMPH,PrecipitationIn,Events,Conditions,WindDirDegrees,DateUTC
12:54 AM,45.0,42.1,90,30.13,10.0,Calm,Calm,-,N/A,,Clear,0,2013-05-15 07:54:00
1:54 AM,44.1,42.1,93,30.13,10.0,SSW,3.5,-,N/A,,Mostly Cloudy,210,2013-05-15 08:54:00
2:54 AM,45.0,42.1,90,30.12,10.0,Calm,Calm,-,N/A,,Scattered Clouds,0,2013-05-15 09:54:00
3:54 AM,42.1,41.0,96,30.11,10.0,Calm,Calm,-,N/A,,Clear,0,2013-05-15 10:54:00
4:54 AM,39.9,39.0,97,30.11,10.0,Calm,Calm,-,N/A,,Clear,0,2013-05-15 11:54:00
5:52 AM,41.0,39.2,93,30.10,1.8,Calm,Calm,-,N/A,,Partly Cloudy,0,2013-05-15 12:52:00
5:54 AM,39.9,39.0,97,30.10,1.0,Calm,Calm,-,N/A,,Partly Cloudy,0,2013-05-15 12:54:00
6:03 AM,39.9,39.0,97,30.10,3.0,Calm,Calm,-,N/A,,Partly Cloudy,0,2013-05-15 13:03:00
6:54 AM,44.1,42.1,93,30.10,10.0,Calm,Calm,-,N/A,,Clear,0,2013-05-15 13:54:00
7:54 AM,48.0,44.1,86,30.10,10.0,Calm,Calm,-,N/A,,Overcast,0,2013-05-15 14:54:00
8:54 AM,51.1,45.0,80,30.09,10.0,Calm,Calm,-,N/A,,Scattered Clouds,0,2013-05-15 15:54:00
9:54 AM,55.9,43.0,62,30.09,10.0,South,5.8,-,N/A,,Mostly Cloudy,180,2013-05-15 16:54:00
10:54 AM,57.9,42.1,56,30.09,10.0,Calm,Calm,-,N/A,,Mostly Cloudy,0,2013-05-15 17:54:00
11:54 AM,57.9,44.1,60,30.08,10.0,WSW,5.8,-,N/A,,Mostly Cloudy,240,2013-05-15 18:54:00
12:54 PM,55.9,46.9,72,30.08,10.0,SSW,8.1,-,0.00,,Overcast,210,2013-05-15 19:54:00
1:54 PM,55.9,46.9,72,30.08,9.0,SSW,5.8,-,0.00,Rain,Light Rain,210,2013-05-15 20:54:00
2:54 PM,55.9,48.9,77,30.07,9.0,South,8.1,-,0.00,Rain,Light Rain,190,2013-05-15 21:54:00
3:54 PM,57.0,48.9,74,30.06,10.0,South,5.8,-,0.00,Rain,Light Rain,190,2013-05-15 22:54:00
4:54 PM,55.9,48.9,77,30.06,8.0,South,8.1,-,0.00,Rain,Light Rain,190,2013-05-15 23:54:00
5:54 PM,57.0,48.9,74,30.04,10.0,SSW,9.2,-,0.01,,Overcast,210,2013-05-16 00:54:00
6:54 PM,54.0,51.1,90,30.04,4.0,SSW,6.9,-,0.00,Rain,Light Rain,200,2013-05-16 01:54:00
7:16 PM,54.0,52.0,93,30.04,10.0,SSW,5.8,-,0.00,Rain,Light Rain,200,2013-05-16 02:16:00
7:54 PM,54.0,51.1,90,30.03,9.0,SSW,3.5,-,0.00,,Overcast,210,2013-05-16 02:54:00
8:54 PM,54.0,51.1,90,30.03,10.0,South,5.8,-,0.00,,Overcast,190,2013-05-16 03:54:00
9:54 PM,54.0,51.1,90,30.04,10.0,SSW,6.9,-,N/A,,Overcast,200,2013-05-16 04:54:00
10:54 PM,53.1,50.0,89,30.03,10.0,SSW,5.8,-,N/A,,Overcast,210,2013-05-16 05:54:00
11:54 PM,53.1,50.0,89,30.03,10.0,SSW,10.4,-,N/A,,Overcast,200,2013-05-16 06:54:00